Regional Weather Roundup
Issued by NWS

Home | Current Version | Previous Version | Text Only | Print | Product List | Glossary On
Versions: 1 2 3 4 5 6 7 8 9 10 11 12 13 14 15 16 17 18 19 20 21 22 23 24 25 26 27 28 29 30 31 32 33 34 35 36 37 38 39 40 41 42 43 44 45 46 47 48 49 50
000
ASUS43 KDTX 231401
RWRMI
MICHIGAN HOURLY REGIONAL WEATHER ROUNDUP
NATIONAL WEATHER SERVICE DETROIT/PONTIAC MI
1000 AM EDT MON OCT 23 2017

NOTE: "FAIR" INDICATES FEW OR NO CLOUDS BELOW 12,000 FEET WITH NO
SIGNIFICANT WEATHER AND/OR OBSTRUCTION TO VISIBILITY.

MIZ047>049-052>055-059>063-066>070-074>076-081>083-231500-
SOUTHEAST LOWER MICHIGAN

CITY           SKY/WX    TMP DP  RH WIND       PRES   REMARKS
ADRIAN         CLOUDY    62  52  69 S7        29.86F
ANN ARBOR      CLOUDY    62  53  72 SE6       29.85F
DETROIT CITY   CLOUDY    65  54  67 S8        29.87F
DETROIT        CLOUDY    65  54  67 VRB7      29.86F
FLINT          CLOUDY    63  51  65 S10       29.84F

CITY           SKY/WX    TMP DP  RH WIND       PRES   REMARKS
JACKSON        CLOUDY    61  52  72 SE6       29.83F
LANSING        LGT RAIN  60  54  80 SE6       29.84F
LAPEER         NOT AVBL
MT. CLEMENS    CLOUDY    63  60  90 SE7       29.87F
PONTIAC        CLOUDY    62  54  74 SE10      29.86F
PORT HOPE        N/A     63  52  67 CALM      29.85F
PORT HURON     CLOUDY    64  54  68 SE5       29.89F
TRI CITIES     CLOUDY    59  59 100 N7        29.86F
MIDLAND        NOT AVBL
$$
MIZ043>046-050>051-056>058-064>065-071>073-077>080-231500-
SOUTHWEST LOWER MICHIGAN

CITY           SKY/WX    TMP DP  RH WIND       PRES   REMARKS
BATTLE CREEK   RAIN      59  57  93 CALM      29.82F FOG
BENTON HARBOR  HVY RAIN  54  51  90 NE3       29.82S FOG
HOLLAND        LGT RAIN  53  50  89 VRB7      29.85S FOG
GRAND RAPIDS   LGT RAIN  54  54 100 N7        29.83F
IONIA          RAIN      56  56  99 N9        29.81F
KALAMAZOO      RAIN      57  55  93 NE5       29.80F FOG
MUSKEGON       RAIN      52  50  93 N12       29.85F FOG
$$
MIZ016>042-231500-
NORTHERN LOWER MICHIGAN

CITY           SKY/WX    TMP DP  RH WIND       PRES   REMARKS
ALPENA         LGT RAIN  52  52 100 N8        29.91F
FRANKFORT      CLOUDY    51  51 100 SE3       29.90F
GAYLORD        RAIN      47  45  93 NE5       29.89F FOG
HOUGHTON LAKE  RAIN      49  47  93 N7        29.89F FOG
MANISTEE       LGT RAIN  51  50  96 E6        29.89F
PELLSTON       LGT RAIN  50  49  96 SE5       29.92R FOG
TRAVERSE CITY  LGT RAIN  52  50  93 CALM      29.90S
$$
MIZ007>008-015-231500-
EASTERN UPPER MICHIGAN

CITY           SKY/WX    TMP DP  RH WIND       PRES   REMARKS
KINROSS        CLOUDY    48  47  96 SE6       29.91F
MACKINAC ISLAN LGT RAIN  50  50 100 NE7       29.89F
S. S. MARIE    CLOUDY    50  48  93 SE5       29.90F
MUNISING         N/A     43  43 100 S6        29.86F
$$
MIZ004>006-011>014-085-231500-
CENTRAL UPPER MICHIGAN

CITY           SKY/WX    TMP DP  RH WIND       PRES   REMARKS
ESCANABA       FOG       44  44 100 NW3       29.89F VSB 1/4
MENOMINEE      FOG       43  43 100 CALM      29.89F VSB 1/4
SAWYER-GWINN   CLOUDY    39  39 100 S6        29.87  WCI  35
$$
MIZ001>003-009>011-084-231500-
WESTERN UPPER MICHIGAN

CITY           SKY/WX    TMP DP  RH WIND       PRES   REMARKS
IRON MOUNTAIN  FOG       39  37  92 SE6       29.85F VSB 1/4 WCI  35
HOUGHTON       MOSUNNY   47  39  74 SE7       29.77F
COPPER HARBOR    N/A     50  41  71 W7        29.78F
IRONWOOD       CLOUDY    49  38  65 S15G22    29.73F
$$

ABBREVIATIONS USED IN REMARKS
   TC - TEMPERATURE IN CELSIUS
  WCI - WIND CHILL INDEX
   HX - HEAT INDEX
  VSB - VISIBILITY




USA.gov is the U.S. government's official web portal to all federal, state and local government web resources and services.